CSIM (43793 NORAD) Tracking and Keplerian Element Data

This shows tracking and keplerian element data for the satellite.

Feedback or suggestion? Click here.




ElementValue
Catalog43793
NameCSIM
Epoch Orbit3356
Epoch Day199.15649572
Epoch Year2019
RAAN270.7819
Inclination97.7393
Eccentricity0.0011967
Argument of Perigee223.7423
Mean Anonmoly136.285
Mean Motion14.95713845
Decay Rate6.72E-06
L11 43793U 18099AM 19199.15649572 .00000672 00000-0 65497-4 0 9991
L22 43793 97.7393 270.7819 0011967 223.7423 136.2850 14.95713845 33566

Live tracking and technical data element details for CSIM (NORAD 43793). CSIM can be tracked NOW for your location showing map with azimuth and elevation plus other details from your city location.

Track the satellite on the map from your city or location and see movement details for azimuth, elevation, latitude, longitude, range, height, and movement on the map or in text.







IsCatalogInMostPopularTable: catalog: 43793, numindb: 89
Update: records affected: 1



GetName: 43793 CSIM

Hit Count: updated at: Mon, 22 Jul 2019 16:16:44 GMT